Location: St. Louis
(38.6270°N, 90.1994°W)
Time: 18:54:06
(UTC-06:00)

Vanguard 2 - Visible Passes

Search period start: 29 November 2021 00:00
Search period end: 09 December 2021 00:00
Orbit: 554 x 2936 km, 32.9° (Epoch: 29 November)

Date Brightness Start Highest point End Pass type
(mag) Time Alt. Az. Time Alt. Az. Time Alt. Az.
29 Nov 9.6 16:52:37 10° W 17:00:14 62° S 17:13:05 10° ESE visible
29 Nov 10.3 19:00:47 10° W 19:10:30 47° SSW 19:21:48 18° SE visible
29 Nov 11.2 21:11:23 10° W 21:21:18 24° SSW 21:23:16 24° SSW visible
30 Nov 9.7 17:10:16 10° W 17:17:58 58° S 17:30:52 10° ESE visible
30 Nov 10.5 19:18:42 10° W 19:28:14 39° SSW 19:39:36 16° SSE visible
30 Nov 11.4 21:30:44 10° WSW 21:38:57 18° SW 21:41:06 17° SSW visible
01 Dec 9.8 17:27:57 10° W 17:35:43 52° SSW 17:48:30 10° ESE visible
01 Dec 10.8 19:36:49 10° W 19:45:59 32° SSW 19:57:49 12° SSE visible
01 Dec 11.7 21:52:01 10° SW 21:56:38 12° SW 21:59:22 11° SSW visible
02 Dec 10.0 17:45:41 10° W 17:53:27 45° SSW 18:05:56 10° SE visible
02 Dec 11.1 19:55:15 10° WSW 20:03:44 25° SSW 20:15:05 10° SSE visible
03 Dec 10.3 18:03:32 10° W 18:11:12 38° SSW 18:23:07 10° SE visible
03 Dec 11.3 20:14:16 10° WSW 20:21:28 18° SSW 20:30:30 10° S visible
04 Dec 10.6 18:21:33 10° W 18:28:58 31° SSW 18:39:57 10° SSE visible
04 Dec 11.6 20:34:47 10° SW 20:39:15 12° SSW 20:44:17 10° SSW visible
05 Dec 10.9 18:39:52 10° WSW 18:46:44 24° SSW 18:56:19 10° SSE visible
06 Dec 11.3 18:58:42 10° WSW 19:04:31 18° SSW 19:12:00 10° S visible
07 Dec 10.5 17:06:46 10° WSW 17:12:35 28° SSW 17:21:14 10° SE visible
07 Dec 11.6 19:19:05 10° SW 19:22:19 12° SSW 19:25:59 10° SSW visible
08 Dec 10.8 17:25:01 10° WSW 17:30:21 22° SSW 17:37:45 10° SSE visible
